UAL1156 KSGF-KORD

Flight info

Callsign UAL1156
Flight time N/A
Altitude 33000
Route DCT SGF DCT WELTS TRTLL6
Aircraft CRJ5/M-V/N

Departure

Time 2026-04-27 15:44
Airport Springfield Branson National Airport (KSGF)

Arrival

Time N/A
Airport Chicago O'Hare International Airport (KORD)
Time Latitude Longitude Altitude Speed Heading
2026-04-27 15:16 37.24016 -93.39724 1269 ft 0 kts 107°
2026-04-27 15:30 37.24016 -93.39725 1269 ft 1 kts 107°
2026-04-27 15:30 37.24020 -93.39744 1269 ft 3 kts 99°
2026-04-27 15:30 37.24021 -93.39769 1269 ft 3 kts 82°
2026-04-27 15:30 37.24014 -93.39791 1269 ft 3 kts 49°
2026-04-27 15:31 37.24004 -93.39800 1269 ft 1 kts 22°
2026-04-27 15:31 37.24003 -93.39800 1269 ft 1 kts 22°
2026-04-27 15:37 37.24029 -93.39787 1269 ft 9 kts 22°
2026-04-27 15:38 37.24108 -93.39746 1269 ft 15 kts 22°
2026-04-27 15:38 37.24185 -93.39682 1269 ft 9 kts 68°
2026-04-27 15:38 37.24182 -93.39642 1269 ft 10 kts 107°
2026-04-27 15:38 37.24152 -93.39541 1269 ft 14 kts 113°
2026-04-27 15:39 37.24126 -93.39435 1269 ft 9 kts 84°
2026-04-27 15:39 37.24153 -93.39390 1269 ft 12 kts 32°
2026-04-27 15:39 37.24185 -93.39307 1269 ft 11 kts 104°
2026-04-27 15:39 37.24146 -93.39181 1269 ft 17 kts 111°
2026-04-27 15:40 37.24102 -93.39045 1269 ft 17 kts 112°
2026-04-27 15:40 37.24082 -93.38905 1269 ft 17 kts 60°
2026-04-27 15:40 37.24139 -93.38843 1269 ft 0 kts 33°
2026-04-27 15:40 37.24185 -93.38807 1270 ft 15 kts 32°
2026-04-27 15:41 37.24295 -93.38721 1269 ft 22 kts 31°
2026-04-27 15:41 37.24457 -93.38627 1268 ft 29 kts 22°
2026-04-27 15:41 37.24646 -93.38531 1268 ft 30 kts 21°
2026-04-27 15:41 37.24838 -93.38435 1268 ft 30 kts 21°
2026-04-27 15:42 37.25033 -93.38338 1275 ft 30 kts 21°
2026-04-27 15:42 37.25231 -93.38240 1267 ft 31 kts 21°
2026-04-27 15:42 37.25365 -93.38152 1267 ft 13 kts 64°
2026-04-27 15:42 37.25367 -93.38140 1267 ft 0 kts 92°
2026-04-27 15:43 37.25362 -93.38107 1267 ft 8 kts 109°
2026-04-27 15:43 37.25320 -93.38056 1268 ft 7 kts 169°
2026-04-27 15:43 37.25304 -93.38057 1266 ft 3 kts 195°
2026-04-27 15:43 37.25038 -93.38189 1269 ft 83 kts 201°
2026-04-27 15:44 37.24272 -93.38574 1307 ft 148 kts 201°
2026-04-27 15:44 37.23208 -93.39141 1781 ft 187 kts 201°
2026-04-27 15:44 37.21911 -93.39792 2593 ft 211 kts 201°
2026-04-27 15:44 37.20489 -93.40392 3786 ft 214 kts 201°
2026-04-27 15:45 37.19096 -93.40928 5036 ft 208 kts 201°
2026-04-27 15:45 37.17577 -93.41495 5066 ft 255 kts 200°
2026-04-27 15:45 37.16377 -93.41957 4959 ft 288 kts 200°
2026-04-27 15:45 37.14369 -93.42739 5340 ft 315 kts 200°
2026-04-27 15:46 37.12198 -93.43592 5772 ft 338 kts 200°
2026-04-27 15:46 37.09985 -93.44307 6179 ft 312 kts 189°
2026-04-27 15:46 37.08037 -93.43758 6924 ft 274 kts 156°
2026-04-27 15:46 37.06672 -93.42056 7075 ft 291 kts 123°
2026-04-27 15:47 37.06192 -93.39603 7522 ft 295 kts 91°
2026-04-27 15:47 37.06742 -93.37164 7972 ft 291 kts 58°
2026-04-27 15:47 37.08124 -93.35435 8476 ft 275 kts 23°
2026-04-27 15:47 37.09970 -93.34863 9142 ft 277 kts 348°
2026-04-27 15:48 37.11770 -93.35589 9819 ft 273 kts 315°
2026-04-27 15:48 37.12961 -93.37375 10489 ft 270 kts 293°
2026-04-27 15:48 37.14592 -93.38871 10783 ft 338 kts 342°
2026-04-27 15:49 37.19278 -93.36338 12020 ft 401 kts 41°
2026-04-27 15:49 37.21075 -93.33628 13035 ft 409 kts 57°
2026-04-27 15:49 37.22721 -93.30690 13917 ft 416 kts 51°
2026-04-27 15:49 37.24704 -93.27967 14371 ft 433 kts 40°
2026-04-27 15:50 37.27090 -93.25613 14559 ft 450 kts 31°
2026-04-27 15:50 37.29764 -93.23503 14653 ft 458 kts 27°
2026-04-27 15:50 37.32524 -93.21419 14693 ft 469 kts 28°
2026-04-27 15:50 37.35317 -93.19209 14707 ft 475 kts 30°
2026-04-27 15:51 37.38044 -93.16911 14714 ft 470 kts 31°
2026-04-27 15:51 37.40742 -93.14619 14708 ft 466 kts 31°
2026-04-27 15:51 37.43435 -93.12359 14705 ft 463 kts 31°
2026-04-27 15:51 37.46110 -93.10118 14711 ft 461 kts 30°
2026-04-27 15:52 37.48774 -93.07894 14702 ft 459 kts 30°
2026-04-27 15:52 37.51434 -93.05666 14702 ft 458 kts 30°
2026-04-27 15:52 37.54074 -93.03450 14695 ft 456 kts 30°
2026-04-27 15:52 37.56711 -93.01239 14752 ft 453 kts 30°
2026-04-27 15:53 37.59322 -92.99045 14849 ft 449 kts 30°
2026-04-27 15:53 37.61911 -92.96868 14948 ft 446 kts 30°
2026-04-27 15:53 37.64494 -92.94696 14944 ft 446 kts 30°
2026-04-27 15:53 37.67079 -92.92525 14958 ft 446 kts 30°
2026-04-27 15:54 37.69658 -92.90350 15104 ft 445 kts 30°
2026-04-27 15:54 37.72274 -92.88132 15508 ft 463 kts 31°
2026-04-27 15:54 37.74978 -92.85850 15921 ft 468 kts 31°
2026-04-27 15:54 37.77687 -92.83565 16331 ft 467 kts 30°
2026-04-27 15:55 37.80376 -92.81262 16732 ft 466 kts 31°
2026-04-27 15:55 37.83069 -92.78994 17167 ft 468 kts 30°
2026-04-27 15:55 37.85823 -92.76680 17576 ft 482 kts 31°
2026-04-27 15:55 37.88648 -92.74272 18002 ft 495 kts 31°
2026-04-27 15:56 37.91511 -92.71835 18584 ft 495 kts 31°
2026-04-27 15:56 37.94366 -92.69410 19419 ft 494 kts 31°
2026-04-27 15:56 37.97216 -92.66983 20240 ft 493 kts 31°
2026-04-27 15:56 38.00056 -92.64567 21099 ft 490 kts 31°
2026-04-27 15:57 38.02874 -92.62168 21979 ft 486 kts 31°
2026-04-27 15:57 38.05667 -92.59783 22895 ft 481 kts 31°
2026-04-27 15:57 38.08425 -92.57425 23734 ft 476 kts 31°
2026-04-27 15:57 38.11152 -92.55096 24529 ft 469 kts 31°
2026-04-27 15:58 38.13841 -92.52796 25347 ft 462 kts 30°
2026-04-27 15:58 38.16483 -92.50538 26252 ft 454 kts 30°
2026-04-27 15:58 38.19079 -92.48318 27106 ft 444 kts 30°
2026-04-27 15:58 38.21620 -92.46145 27988 ft 434 kts 30°
2026-04-27 15:59 38.24087 -92.44031 28894 ft 422 kts 30°
2026-04-27 15:59 38.26470 -92.41949 29819 ft 409 kts 30°
2026-04-27 15:59 38.28773 -92.39938 30621 ft 394 kts 30°
2026-04-27 15:59 38.30980 -92.38009 31437 ft 376 kts 30°
2026-04-27 16:00 38.33104 -92.36175 32119 ft 363 kts 29°
2026-04-27 16:00 38.35191 -92.34393 32441 ft 362 kts 29°
2026-04-27 16:00 38.37300 -92.32607 32591 ft 366 kts 29°
2026-04-27 16:01 38.41602 -92.28913 32683 ft 380 kts 30°
2026-04-27 16:01 38.46069 -92.25039 32759 ft 397 kts 31°
2026-04-27 16:02 38.50728 -92.20979 32788 ft 415 kts 31°
2026-04-27 16:02 38.55578 -92.16773 32786 ft 433 kts 31°
2026-04-27 16:03 38.60698 -92.12322 32789 ft 451 kts 31°
2026-04-27 16:03 38.65961 -92.07728 32799 ft 469 kts 31°
2026-04-27 16:04 38.71454 -92.02940 32748 ft 486 kts 31°
2026-04-27 16:04 38.77127 -91.97984 32740 ft 501 kts 31°
2026-04-27 16:05 38.82971 -91.92863 32733 ft 516 kts 32°
2026-04-27 16:05 38.88979 -91.87624 32725 ft 528 kts 32°
2026-04-27 16:06 38.95109 -91.82253 32719 ft 538 kts 33°
2026-04-27 16:06 39.01273 -91.76825 32716 ft 536 kts 33°
2026-04-27 16:07 39.07405 -91.71409 32711 ft 534 kts 33°
2026-04-27 16:07 39.13277 -91.65593 32723 ft 534 kts 44°
2026-04-27 16:08 39.18389 -91.58645 32717 ft 534 kts 47°
2026-04-27 16:08 39.23394 -91.51566 32688 ft 533 kts 48°
2026-04-27 16:09 39.28451 -91.44580 32697 ft 532 kts 45°
2026-04-27 16:09 39.36375 -91.34567 32711 ft 531 kts 46°
2026-04-27 16:10 39.46811 -91.20931 32849 ft 540 kts 46°
2026-04-27 16:11 39.54776 -91.10496 32955 ft 545 kts 45°